Showing default

INTELSAT 2-F3, 2717

Orbit data source: Space-Track

INTELSAT 2-F3, 2717 is a payload satellite owned by INTELSAT (US) in GEO that was launched on Thu, 23 Mar 1967 UTC via a THOR DELTA E1 launch vehicle from the Air Force Eastern Test Range (AFETR). Payload-class satellites include a variety of spacecraft equipped with specific instruments for various scientific and technological missions. These include communications satellites like Starlink; space stations such as the ISS; scientific satellites like the Hubble; Earth observation satellites from companies like Planet Labs, Umbra, and HawkEye 360; GPS; miniature CubeSats for education and research; and military/defense satellites.

Not visible in the next 10 days
Identifier
2717, 1967-026A
Orbit
GEO
Country
Flag of UnknownUnknown / ITSO
Related business
Manufacturer
Hughes
Mission
Non-operational Civil Communications
Bus & Motor
HS-303, SVM-1
Mass
163 kg wet, ~65 kg dry
Launch date (UTC)
1967-03-23 (58 years ago)
Launch vehicle
THOR DELTA E1
Launch site
Air Force Eastern Test Range (AFETR)
Object type
Payload
Rocket body
Debris
Shape & HBR
Cyl, 0.7 m
Radar Cross Section
2.199 m², Large (>1 m²)

Expand to show TLE details & history
Last TLE update: 14 hours ago

TLE from 14 hours ago
0 INTELSAT 2-F3
1 02717U 67026A   25260.86728411 -.00000065  00000-0  00000-0 0  9992
2 02717   3.4024  69.4970 0018088 211.2641  22.9487  1.00281804121166
Epoch: 2025-09-17T20:48Z
TLE epoch observation values (Epoch: 2025-09-17T20:48:53.347Z)
Latitude
-2.74964°
Longitude
-5.51964°
Altitude
35,713.629 km
Speed
3.08 km/s
True Right ascension
20h 14m 57s
True Declination
-2° 44' 49"
Sunlit
Object was in daylight at epoch
Visualization orbit readout
Latitude
Unknown
Longitude
Unknown
Altitude
Unknown
Speed
Unknown
Apparent Right ascension
Unknown
Apparent Declination
Unknown
Sunlit
N/A
Visualization observer readout
Local Sidereal Time
04:04:00
Azimuth
Unknown
Elevation
Unknown
Doppler factor
Unknown
Orbital elements
Apogee altitude
35,861.116 km
Perigee altitude
35,708.587 km
Semi-major axis
42,162.988 km
Eccentricity
0.00181
Inclination
3.4024°
RAAN
69.497°
Arg. of periapsis
211.2641°
True anomaly
23.02969°
Mean anomaly
22.9487°
Eccentric anomaly
22.98918°
Mean motion
0.2507 °/min
Orbital period
1,436.01 mins
BSTAR
0
Loading maneuver chart data...
Computing Atmospheric mass density...
Loading historical data...
Loading historical data...
Loading historical data...
Loading historical data...
Loading historical data...
Loading historical data...
Loading historical data...
Other satellites on launch #26 in the year 1967 (1967-03-23 UTC)

Documentation

Showing up to 5 results
|